ASP565 KSAT-KPSP

Flight info

Callsign ASP565
Flight time 3h 2m
Altitude 44000
Route ALISS7 ALISS FST ELP FLOGS SSO HRRBR J212 CURIV RDBUL1
Aircraft C25B/M-SDE2E3FGHRWXY/LB1

Departure

Time 2026-04-21 16:35
Airport San Antonio International Airport (KSAT)

Arrival

Time 2026-04-21 19:37
Airport Palm Springs International Airport (KPSP)
Time Latitude Longitude Altitude Speed Heading
2026-04-21 16:24 29.53367 -98.47887 793 ft 0 kts 109°
2026-04-21 16:30 29.53369 -98.47877 793 ft 3 kts 38°
2026-04-21 16:30 29.53428 -98.47898 793 ft 15 kts 354°
2026-04-21 16:30 29.53521 -98.47914 793 ft 14 kts 311°
2026-04-21 16:31 29.53583 -98.47995 793 ft 13 kts 312°
2026-04-21 16:31 29.53643 -98.48071 793 ft 12 kts 312°
2026-04-21 16:31 29.53696 -98.48139 793 ft 11 kts 310°
2026-04-21 16:31 29.53743 -98.48200 793 ft 10 kts 311°
2026-04-21 16:32 29.53790 -98.48261 793 ft 11 kts 312°
2026-04-21 16:32 29.53868 -98.48263 793 ft 15 kts 30°
2026-04-21 16:32 29.53953 -98.48328 793 ft 18 kts 310°
2026-04-21 16:32 29.54046 -98.48449 793 ft 22 kts 311°
2026-04-21 16:33 29.54130 -98.48556 793 ft 0 kts 312°
2026-04-21 16:33 29.54148 -98.48578 793 ft 12 kts 313°
2026-04-21 16:34 29.54221 -98.48593 793 ft 11 kts 33°
2026-04-21 16:34 29.54262 -98.48535 793 ft 8 kts 106°
2026-04-21 16:34 29.54205 -98.48466 793 ft 39 kts 133°
2026-04-21 16:34 29.53811 -98.47954 797 ft 127 kts 131°
2026-04-21 16:35 29.53149 -98.47094 1431 ft 152 kts 129°
2026-04-21 16:35 29.52402 -98.46116 2338 ft 170 kts 130°
2026-04-21 16:35 29.51592 -98.45092 3442 ft 174 kts 136°
2026-04-21 16:35 29.50471 -98.44501 4514 ft 187 kts 169°
2026-04-21 16:36 29.49093 -98.44803 5003 ft 229 kts 206°
2026-04-21 16:36 29.48109 -98.46187 6147 ft 231 kts 242°
2026-04-21 16:36 29.47933 -98.48042 7214 ft 244 kts 275°
2026-04-21 16:36 29.48722 -98.49810 8171 ft 260 kts 307°
2026-04-21 16:37 29.50054 -98.51251 9077 ft 266 kts 314°
2026-04-21 16:37 29.51463 -98.52650 9959 ft 270 kts 315°
2026-04-21 16:37 29.52887 -98.54024 10964 ft 266 kts 316°
2026-04-21 16:37 29.54294 -98.55388 11932 ft 262 kts 315°
2026-04-21 16:38 29.55810 -98.56550 12812 ft 267 kts 335°
2026-04-21 16:38 29.57617 -98.57104 13635 ft 271 kts 342°
2026-04-21 16:38 29.59442 -98.57690 14414 ft 273 kts 338°
2026-04-21 16:38 29.61230 -98.58421 15185 ft 274 kts 334°
2026-04-21 16:39 29.63025 -98.59190 15932 ft 277 kts 335°
2026-04-21 16:39 29.64849 -98.59943 16688 ft 279 kts 335°
2026-04-21 16:39 29.66695 -98.60689 17400 ft 282 kts 334°
2026-04-21 16:39 29.68554 -98.61446 18110 ft 284 kts 334°
2026-04-21 16:40 29.70425 -98.62211 18810 ft 287 kts 334°
2026-04-21 16:40 29.72307 -98.62985 19522 ft 288 kts 334°
2026-04-21 16:40 29.74173 -98.63745 20206 ft 289 kts 334°
2026-04-21 16:40 29.76070 -98.64539 20852 ft 290 kts 331°
2026-04-21 16:41 29.77268 -98.65252 21274 ft 286 kts 322°
2026-04-21 16:41 29.79345 -98.67112 22139 ft 281 kts 309°
2026-04-21 16:41 29.80598 -98.68790 22749 ft 280 kts 304°
2026-04-21 16:41 29.81831 -98.70528 23375 ft 281 kts 305°
2026-04-21 16:42 29.83071 -98.72276 23956 ft 283 kts 304°
2026-04-21 16:42 29.84321 -98.74038 24532 ft 285 kts 304°
2026-04-21 16:42 29.85572 -98.75810 25112 ft 286 kts 304°
2026-04-21 16:42 29.86831 -98.77594 25665 ft 288 kts 304°
2026-04-21 16:43 29.88101 -98.79387 26189 ft 290 kts 304°
2026-04-21 16:43 29.89381 -98.81198 26710 ft 292 kts 304°
2026-04-21 16:43 29.90673 -98.83019 27231 ft 294 kts 304°
2026-04-21 16:43 29.91973 -98.84852 27747 ft 296 kts 304°
2026-04-21 16:44 29.93278 -98.86691 28316 ft 295 kts 303°
2026-04-21 16:44 29.94558 -98.88496 29075 ft 289 kts 303°
2026-04-21 16:44 29.95824 -98.90283 29696 ft 287 kts 303°
2026-04-21 16:44 29.97079 -98.92061 30328 ft 284 kts 303°
2026-04-21 16:45 29.98306 -98.93797 30934 ft 283 kts 303°
2026-04-21 16:45 29.99545 -98.95548 31548 ft 281 kts 303°
2026-04-21 16:45 30.00775 -98.97291 32165 ft 279 kts 303°
2026-04-21 16:45 30.01998 -98.99020 32795 ft 277 kts 303°
2026-04-21 16:46 30.03210 -99.00738 33436 ft 274 kts 302°
2026-04-21 16:46 30.04409 -99.02437 34076 ft 272 kts 302°
2026-04-21 16:46 30.05598 -99.04124 34708 ft 270 kts 302°
2026-04-21 16:46 30.06784 -99.05804 35273 ft 270 kts 302°
2026-04-21 16:47 30.07970 -99.07486 35819 ft 270 kts 302°
2026-04-21 16:47 30.09154 -99.09169 36376 ft 270 kts 302°
2026-04-21 16:47 30.09928 -99.10293 36718 ft 269 kts 300°
2026-04-21 16:47 30.10903 -99.12114 37207 ft 266 kts 293°
2026-04-21 16:48 30.11662 -99.14053 37699 ft 264 kts 287°
2026-04-21 16:48 30.12196 -99.16072 38207 ft 262 kts 282°
2026-04-21 16:48 30.12667 -99.18108 38671 ft 263 kts 283°
2026-04-21 16:48 30.13154 -99.20146 39168 ft 263 kts 283°
2026-04-21 16:49 30.13631 -99.22179 39642 ft 262 kts 283°
2026-04-21 16:49 30.14106 -99.24220 40060 ft 264 kts 283°
2026-04-21 16:49 30.14582 -99.26268 40512 ft 264 kts 283°
2026-04-21 16:49 30.15061 -99.28319 40919 ft 265 kts 282°
2026-04-21 16:50 30.15542 -99.30378 41338 ft 265 kts 282°
2026-04-21 16:50 30.16019 -99.32441 41747 ft 266 kts 282°
2026-04-21 16:50 30.16504 -99.34509 42143 ft 267 kts 282°
2026-04-21 16:50 30.16983 -99.36584 42512 ft 268 kts 282°
2026-04-21 16:51 30.17462 -99.38643 42865 ft 269 kts 282°
2026-04-21 16:51 30.17949 -99.40738 43213 ft 271 kts 282°
2026-04-21 16:51 30.18435 -99.42843 43561 ft 272 kts 282°
2026-04-21 16:51 30.18927 -99.44961 43894 ft 273 kts 282°
2026-04-21 16:52 30.19417 -99.47083 44208 ft 275 kts 282°
2026-04-21 16:52 30.19920 -99.49263 44227 ft 286 kts 282°
2026-04-21 16:52 30.20445 -99.51532 44239 ft 298 kts 282°
2026-04-21 16:52 30.20987 -99.53889 44237 ft 309 kts 282°
2026-04-21 16:53 30.21552 -99.56327 44240 ft 319 kts 282°
2026-04-21 16:53 30.22728 -99.61431 44241 ft 336 kts 282°
2026-04-21 16:54 30.23931 -99.66656 44241 ft 335 kts 282°
2026-04-21 16:54 30.25123 -99.71851 44241 ft 333 kts 282°
2026-04-21 16:55 30.26310 -99.77030 44243 ft 332 kts 282°
2026-04-21 16:55 30.27487 -99.82185 44239 ft 331 kts 282°
2026-04-21 16:56 30.28653 -99.87301 44237 ft 330 kts 282°
2026-04-21 16:56 30.29822 -99.92433 44236 ft 330 kts 282°
2026-04-21 16:57 30.30987 -99.97558 44236 ft 329 kts 282°
2026-04-21 16:57 30.32147 -100.02674 44235 ft 328 kts 282°
2026-04-21 16:58 30.33305 -100.07782 44233 ft 328 kts 282°
2026-04-21 16:58 30.34456 -100.12888 44231 ft 328 kts 282°
2026-04-21 16:59 30.35608 -100.17996 44230 ft 327 kts 282°
2026-04-21 16:59 30.36754 -100.23092 44232 ft 327 kts 282°
2026-04-21 17:00 30.37902 -100.28196 44231 ft 327 kts 282°
2026-04-21 17:00 30.38853 -100.32436 44230 ft 327 kts 282°
2026-04-21 17:01 30.40186 -100.38400 44228 ft 327 kts 282°
2026-04-21 17:01 30.41325 -100.43507 44228 ft 327 kts 282°
2026-04-21 17:02 30.42463 -100.48612 44228 ft 327 kts 282°
2026-04-21 17:02 30.43599 -100.53722 44228 ft 327 kts 282°
2026-04-21 17:03 30.44728 -100.58802 44227 ft 328 kts 282°
2026-04-21 17:03 30.45861 -100.63918 44228 ft 328 kts 282°
2026-04-21 17:04 30.46992 -100.69034 44228 ft 328 kts 282°
2026-04-21 17:04 30.48120 -100.74156 44228 ft 328 kts 282°
2026-04-21 17:05 30.49249 -100.79284 44227 ft 328 kts 282°
2026-04-21 17:05 30.50379 -100.84418 44227 ft 328 kts 282°
2026-04-21 17:06 30.51505 -100.89552 44228 ft 329 kts 282°
2026-04-21 17:06 30.52629 -100.94696 44228 ft 329 kts 282°
2026-04-21 17:07 30.53744 -100.99801 44229 ft 329 kts 282°
2026-04-21 17:07 30.54866 -101.04945 44228 ft 329 kts 282°
2026-04-21 17:08 30.55987 -101.10093 44228 ft 329 kts 282°
2026-04-21 17:08 30.57106 -101.15247 44230 ft 329 kts 282°
2026-04-21 17:09 30.58778 -101.22976 44230 ft 329 kts 282°
2026-04-21 17:09 30.59892 -101.28128 44231 ft 329 kts 282°
2026-04-21 17:10 30.61002 -101.33286 44230 ft 329 kts 282°
2026-04-21 17:10 30.62110 -101.38447 44229 ft 329 kts 282°
2026-04-21 17:11 30.63220 -101.43609 44230 ft 330 kts 282°
2026-04-21 17:11 30.64328 -101.48778 44231 ft 330 kts 282°
2026-04-21 17:12 30.65424 -101.53912 44230 ft 330 kts 282°
2026-04-21 17:12 30.66526 -101.59082 44228 ft 330 kts 282°
2026-04-21 17:13 30.67628 -101.64260 44230 ft 330 kts 282°
2026-04-21 17:13 30.68729 -101.69441 44231 ft 330 kts 282°
2026-04-21 17:14 30.69829 -101.74624 44230 ft 330 kts 282°
2026-04-21 17:14 30.70924 -101.79806 44220 ft 331 kts 282°
2026-04-21 17:15 30.72021 -101.84999 44220 ft 330 kts 282°
2026-04-21 17:15 30.73113 -101.90187 44220 ft 330 kts 282°
2026-04-21 17:16 30.74197 -101.95340 44220 ft 330 kts 282°
2026-04-21 17:16 30.75291 -102.00558 44220 ft 330 kts 282°
2026-04-21 17:17 30.76369 -102.05714 44219 ft 331 kts 282°
2026-04-21 17:17 30.77454 -102.10909 44219 ft 331 kts 282°
2026-04-21 17:18 30.78539 -102.16109 44220 ft 331 kts 282°
2026-04-21 17:18 30.79621 -102.21314 44210 ft 331 kts 282°
2026-04-21 17:19 30.80702 -102.26527 44211 ft 331 kts 282°
2026-04-21 17:19 30.81780 -102.31737 44212 ft 331 kts 282°
2026-04-21 17:20 30.82859 -102.36954 44212 ft 332 kts 282°
2026-04-21 17:20 30.83936 -102.42177 44201 ft 332 kts 282°
2026-04-21 17:21 30.85010 -102.47397 44201 ft 332 kts 282°
2026-04-21 17:21 30.86083 -102.52623 44191 ft 332 kts 282°
2026-04-21 17:22 30.87153 -102.57857 44191 ft 332 kts 281°
2026-04-21 17:22 30.88216 -102.63059 44192 ft 332 kts 281°
2026-04-21 17:23 30.89284 -102.68296 44192 ft 333 kts 282°
2026-04-21 17:23 30.90352 -102.73535 44181 ft 333 kts 282°
2026-04-21 17:24 30.91419 -102.78787 44185 ft 333 kts 281°
2026-04-21 17:24 30.92482 -102.84038 44182 ft 333 kts 281°
2026-04-21 17:25 30.93540 -102.89278 44184 ft 333 kts 281°
2026-04-21 17:25 30.94597 -102.94524 44182 ft 332 kts 281°
2026-04-21 17:26 30.95816 -102.99721 44182 ft 333 kts 286°
2026-04-21 17:26 30.97223 -103.04855 44182 ft 333 kts 285°
2026-04-21 17:27 30.98630 -103.09957 44182 ft 333 kts 285°
2026-04-21 17:27 31.00043 -103.15093 44183 ft 333 kts 285°
2026-04-21 17:28 31.01454 -103.20233 44183 ft 333 kts 285°
2026-04-21 17:28 31.02865 -103.25376 44187 ft 333 kts 285°
2026-04-21 17:29 31.04275 -103.30521 44183 ft 333 kts 285°
2026-04-21 17:29 31.05681 -103.35667 44182 ft 333 kts 285°
2026-04-21 17:30 31.07086 -103.40822 44183 ft 333 kts 285°
2026-04-21 17:30 31.08490 -103.45983 44183 ft 334 kts 285°
2026-04-21 17:31 31.09893 -103.51142 44187 ft 334 kts 285°
2026-04-21 17:31 31.11296 -103.56309 44184 ft 334 kts 285°
2026-04-21 17:32 31.12686 -103.61440 44188 ft 334 kts 285°
2026-04-21 17:32 31.14083 -103.66611 44185 ft 334 kts 285°
2026-04-21 17:33 31.15479 -103.71785 44185 ft 334 kts 285°
2026-04-21 17:33 31.16873 -103.76955 44188 ft 334 kts 285°
2026-04-21 17:34 31.18266 -103.82133 44186 ft 334 kts 285°
2026-04-21 17:34 31.19658 -103.87315 44187 ft 334 kts 285°
2026-04-21 17:35 31.21047 -103.92500 44189 ft 334 kts 285°
2026-04-21 17:35 31.22433 -103.97685 44191 ft 334 kts 284°
2026-04-21 17:36 31.23819 -104.02875 44187 ft 334 kts 284°
2026-04-21 17:36 31.25203 -104.08068 44188 ft 334 kts 285°
2026-04-21 17:37 31.26350 -104.12379 44197 ft 334 kts 284°
2026-04-21 17:37 31.27955 -104.18416 44197 ft 334 kts 284°
2026-04-21 17:38 31.29108 -104.22765 44198 ft 334 kts 284°
2026-04-21 17:38 31.30482 -104.27960 44206 ft 334 kts 284°
2026-04-21 17:39 31.31853 -104.33152 44205 ft 334 kts 284°
2026-04-21 17:39 31.33216 -104.38318 44206 ft 335 kts 284°
2026-04-21 17:40 31.34590 -104.43532 44206 ft 335 kts 284°
2026-04-21 17:40 31.35960 -104.48746 44208 ft 335 kts 284°
2026-04-21 17:41 31.37331 -104.53972 44209 ft 336 kts 284°
2026-04-21 17:41 31.38697 -104.59196 44210 ft 336 kts 284°
2026-04-21 17:42 31.40065 -104.64431 44211 ft 336 kts 284°
2026-04-21 17:42 31.41432 -104.69670 44212 ft 337 kts 284°
2026-04-21 17:43 31.42800 -104.74919 44212 ft 337 kts 284°
2026-04-21 17:43 31.44166 -104.80170 44213 ft 337 kts 284°
2026-04-21 17:44 31.45519 -104.85389 44213 ft 337 kts 284°
2026-04-21 17:44 31.46877 -104.90637 44214 ft 337 kts 284°
2026-04-21 17:45 31.48234 -104.95888 44212 ft 337 kts 284°
2026-04-21 17:45 31.49590 -105.01143 44209 ft 337 kts 284°
2026-04-21 17:46 31.50952 -105.06435 44210 ft 337 kts 284°
2026-04-21 17:46 31.52295 -105.11661 44210 ft 337 kts 284°
2026-04-21 17:47 31.53646 -105.16928 44201 ft 337 kts 284°
2026-04-21 17:47 31.54996 -105.22198 44202 ft 337 kts 284°
2026-04-21 17:48 31.56343 -105.27467 44190 ft 338 kts 284°
2026-04-21 17:48 31.57690 -105.32744 44191 ft 338 kts 284°
2026-04-21 17:49 31.59032 -105.38020 44190 ft 337 kts 284°
2026-04-21 17:49 31.60371 -105.43295 44190 ft 337 kts 284°
2026-04-21 17:50 31.61710 -105.48574 44180 ft 338 kts 284°
2026-04-21 17:50 31.63047 -105.53856 44179 ft 338 kts 284°
2026-04-21 17:51 31.64384 -105.59141 44179 ft 338 kts 284°
2026-04-21 17:51 31.65710 -105.64398 44179 ft 338 kts 284°
2026-04-21 17:52 31.67042 -105.69692 44171 ft 338 kts 284°
2026-04-21 17:52 31.68373 -105.74999 44171 ft 339 kts 284°
2026-04-21 17:53 31.69703 -105.80305 44175 ft 339 kts 284°
2026-04-21 17:53 31.71033 -105.85617 44175 ft 339 kts 284°
2026-04-21 17:54 31.72361 -105.90928 44173 ft 339 kts 284°
2026-04-21 17:54 31.73686 -105.96251 44178 ft 339 kts 284°
2026-04-21 17:55 31.75010 -106.01576 44173 ft 340 kts 284°
2026-04-21 17:55 31.76334 -106.06910 44174 ft 340 kts 284°
2026-04-21 17:56 31.77657 -106.12246 44180 ft 340 kts 284°
2026-04-21 17:56 31.78979 -106.17587 44180 ft 340 kts 284°
2026-04-21 17:57 31.80288 -106.22889 44176 ft 340 kts 283°
2026-04-21 17:57 31.81032 -106.25916 44179 ft 340 kts 284°
2026-04-21 17:58 31.81938 -106.30353 44175 ft 338 kts 278°
2026-04-21 17:58 31.82623 -106.34531 44181 ft 338 kts 279°
2026-04-21 17:59 31.83192 -106.37919 44178 ft 338 kts 278°
2026-04-21 17:59 31.84067 -106.43349 44176 ft 338 kts 278°
2026-04-21 18:00 31.84951 -106.48778 44181 ft 338 kts 278°
2026-04-21 18:00 31.85832 -106.54210 44180 ft 338 kts 278°
2026-04-21 18:01 31.86711 -106.59645 44186 ft 338 kts 278°
2026-04-21 18:01 31.87583 -106.65050 44190 ft 338 kts 278°
2026-04-21 18:02 31.88454 -106.70479 44188 ft 338 kts 278°
2026-04-21 18:02 31.89325 -106.75909 44188 ft 337 kts 278°
2026-04-21 18:03 31.90190 -106.81339 44188 ft 337 kts 278°
2026-04-21 18:03 31.91057 -106.86767 44189 ft 337 kts 278°
2026-04-21 18:04 31.91919 -106.92191 44189 ft 337 kts 278°
2026-04-21 18:04 31.92773 -106.97579 44189 ft 337 kts 278°
2026-04-21 18:05 31.93628 -107.02999 44190 ft 337 kts 278°
2026-04-21 18:05 31.94483 -107.08424 44190 ft 336 kts 278°
2026-04-21 18:06 31.95335 -107.13844 44190 ft 336 kts 278°
2026-04-21 18:06 31.95963 -107.17863 44190 ft 336 kts 278°
2026-04-21 18:07 31.96566 -107.21708 44191 ft 336 kts 277°
2026-04-21 18:07 31.97412 -107.27140 44192 ft 337 kts 277°
2026-04-21 18:08 31.98256 -107.32564 44193 ft 337 kts 277°
2026-04-21 18:08 31.99098 -107.37988 44194 ft 337 kts 277°
2026-04-21 18:09 31.99937 -107.43414 44194 ft 337 kts 277°
2026-04-21 18:09 32.00768 -107.48806 44192 ft 337 kts 277°
2026-04-21 18:10 32.01603 -107.54242 44191 ft 337 kts 277°
2026-04-21 18:10 32.02435 -107.59676 44190 ft 337 kts 277°
2026-04-21 18:11 32.03267 -107.65120 44192 ft 338 kts 277°
2026-04-21 18:11 32.04098 -107.70567 44193 ft 338 kts 277°
2026-04-21 18:12 32.04926 -107.76015 44193 ft 337 kts 277°
2026-04-21 18:12 32.05749 -107.81457 44193 ft 337 kts 277°
2026-04-21 18:13 32.06570 -107.86901 44193 ft 337 kts 277°
2026-04-21 18:13 32.07389 -107.92345 44196 ft 337 kts 277°
2026-04-21 18:14 32.08613 -108.00504 44196 ft 337 kts 277°
2026-04-21 18:15 32.09425 -108.05945 44196 ft 337 kts 277°
2026-04-21 18:15 32.10236 -108.11381 44196 ft 337 kts 277°
2026-04-21 18:16 32.11040 -108.16792 44196 ft 337 kts 277°
2026-04-21 18:16 32.11845 -108.22230 44196 ft 337 kts 277°
2026-04-21 18:17 32.12647 -108.27666 44207 ft 336 kts 277°
2026-04-21 18:17 32.13446 -108.33105 44206 ft 336 kts 277°
2026-04-21 18:18 32.14243 -108.38546 44207 ft 337 kts 277°
2026-04-21 18:18 32.15041 -108.43990 44207 ft 337 kts 277°
2026-04-21 18:19 32.15836 -108.49440 44207 ft 337 kts 277°
2026-04-21 18:19 32.16628 -108.54890 44208 ft 337 kts 277°
2026-04-21 18:20 32.17416 -108.60342 44208 ft 337 kts 277°
2026-04-21 18:20 32.18198 -108.65758 44208 ft 337 kts 277°
2026-04-21 18:21 32.18984 -108.71214 44208 ft 337 kts 277°
2026-04-21 18:21 32.19768 -108.76672 44201 ft 338 kts 276°
2026-04-21 18:22 32.20550 -108.82140 44202 ft 338 kts 276°
2026-04-21 18:22 32.21328 -108.87613 44203 ft 338 kts 276°
2026-04-21 18:23 32.22106 -108.93081 44204 ft 337 kts 276°
2026-04-21 18:23 32.22881 -108.98543 44204 ft 337 kts 276°
2026-04-21 18:24 32.23653 -109.04013 44192 ft 338 kts 276°
2026-04-21 18:24 32.24293 -109.08562 44193 ft 338 kts 276°
2026-04-21 18:25 32.25061 -109.14037 44195 ft 338 kts 276°
2026-04-21 18:25 32.25878 -109.19509 44193 ft 338 kts 277°
2026-04-21 18:26 32.26721 -109.24975 44181 ft 338 kts 277°
2026-04-21 18:26 32.28213 -109.30282 44181 ft 341 kts 287°
2026-04-21 18:27 32.29888 -109.35491 44183 ft 341 kts 286°
2026-04-21 18:27 32.31574 -109.40728 44184 ft 341 kts 287°
2026-04-21 18:28 32.33260 -109.45968 44184 ft 341 kts 286°
2026-04-21 18:28 32.34941 -109.51205 44183 ft 340 kts 286°
2026-04-21 18:29 32.36618 -109.56440 44183 ft 340 kts 286°
2026-04-21 18:29 32.38292 -109.61680 44186 ft 340 kts 286°
2026-04-21 18:30 32.39965 -109.66918 44183 ft 340 kts 286°
2026-04-21 18:30 32.41635 -109.72158 44183 ft 340 kts 286°
2026-04-21 18:31 32.43305 -109.77402 44185 ft 340 kts 286°
2026-04-21 18:31 32.44972 -109.82647 44189 ft 340 kts 286°
2026-04-21 18:32 32.46626 -109.87860 44190 ft 341 kts 286°
2026-04-21 18:32 32.48290 -109.93117 44188 ft 341 kts 286°
2026-04-21 18:33 32.49951 -109.98375 44185 ft 341 kts 286°
2026-04-21 18:33 32.51610 -110.03634 44183 ft 341 kts 286°
2026-04-21 18:34 32.53269 -110.08897 44182 ft 341 kts 286°
2026-04-21 18:34 32.54924 -110.14155 44183 ft 340 kts 286°
2026-04-21 18:35 32.56297 -110.18528 44184 ft 340 kts 286°
2026-04-21 18:35 32.58223 -110.24673 44182 ft 340 kts 285°
2026-04-21 18:36 32.59861 -110.29905 44186 ft 340 kts 286°
2026-04-21 18:36 32.61507 -110.35178 44186 ft 341 kts 285°
2026-04-21 18:37 32.63152 -110.40452 44182 ft 341 kts 286°
2026-04-21 18:37 32.64799 -110.45738 44185 ft 342 kts 285°
2026-04-21 18:38 32.66444 -110.51034 44183 ft 342 kts 285°
2026-04-21 18:38 32.68088 -110.56333 44185 ft 342 kts 285°
2026-04-21 18:39 32.69731 -110.61639 44186 ft 342 kts 285°
2026-04-21 18:39 32.71372 -110.66946 44188 ft 342 kts 285°
2026-04-21 18:40 32.73003 -110.72226 44190 ft 342 kts 285°
2026-04-21 18:40 32.74373 -110.76670 44186 ft 342 kts 285°
2026-04-21 18:41 32.76271 -110.82846 44170 ft 343 kts 285°
2026-04-21 18:41 32.77903 -110.88162 44163 ft 342 kts 285°
2026-04-21 18:42 32.79533 -110.93479 44145 ft 342 kts 285°
2026-04-21 18:42 32.81163 -110.98804 44136 ft 343 kts 285°
2026-04-21 18:43 32.82794 -111.04141 44129 ft 343 kts 285°
2026-04-21 18:43 32.84410 -111.09441 44109 ft 343 kts 285°
2026-04-21 18:44 32.86035 -111.14780 44099 ft 343 kts 285°
2026-04-21 18:44 32.87657 -111.20122 44090 ft 344 kts 285°
2026-04-21 18:45 32.89280 -111.25469 44073 ft 344 kts 285°
2026-04-21 18:45 32.90903 -111.30826 44072 ft 344 kts 285°
2026-04-21 18:46 32.92519 -111.36174 44072 ft 343 kts 285°
2026-04-21 18:46 32.94132 -111.41521 44072 ft 343 kts 285°
2026-04-21 18:47 32.95739 -111.46862 44071 ft 342 kts 285°
2026-04-21 18:47 32.97344 -111.52201 44071 ft 342 kts 285°
2026-04-21 18:48 32.98945 -111.57533 44070 ft 342 kts 285°
2026-04-21 18:48 33.00544 -111.62866 44069 ft 342 kts 285°
2026-04-21 18:49 33.02139 -111.68200 44068 ft 341 kts 285°
2026-04-21 18:49 33.03461 -111.72629 44069 ft 342 kts 285°
2026-04-21 18:50 33.05308 -111.78834 44068 ft 342 kts 285°
2026-04-21 18:50 33.06898 -111.84173 44068 ft 342 kts 285°
2026-04-21 18:51 33.08484 -111.89514 44068 ft 342 kts 285°
2026-04-21 18:51 33.10068 -111.94859 44069 ft 342 kts 285°
2026-04-21 18:52 33.11649 -112.00207 44063 ft 342 kts 285°
2026-04-21 18:52 33.13228 -112.05556 44063 ft 342 kts 285°
2026-04-21 18:53 33.14806 -112.10909 44052 ft 342 kts 285°
2026-04-21 18:53 33.16383 -112.16264 44054 ft 342 kts 285°
2026-04-21 18:54 33.17944 -112.21583 44043 ft 342 kts 285°
2026-04-21 18:54 33.19517 -112.26948 44044 ft 343 kts 285°
2026-04-21 18:55 33.20835 -112.31452 44042 ft 343 kts 285°
2026-04-21 18:55 33.22662 -112.37702 44034 ft 343 kts 285°
2026-04-21 18:56 33.24231 -112.43080 44040 ft 343 kts 285°
2026-04-21 18:56 33.25797 -112.48462 44034 ft 342 kts 285°
2026-04-21 18:57 33.27356 -112.53834 44034 ft 342 kts 285°
2026-04-21 18:57 33.28914 -112.59209 44035 ft 342 kts 285°
2026-04-21 18:58 33.30472 -112.64587 44040 ft 342 kts 285°
2026-04-21 18:58 33.32026 -112.69963 44038 ft 342 kts 285°
2026-04-21 18:59 33.33575 -112.75338 44043 ft 342 kts 285°
2026-04-21 18:59 33.35121 -112.80715 44038 ft 342 kts 285°
2026-04-21 19:00 33.36657 -112.86056 44039 ft 341 kts 285°
2026-04-21 19:00 33.38197 -112.91425 44039 ft 341 kts 285°
2026-04-21 19:01 33.39734 -112.96795 44040 ft 341 kts 284°
2026-04-21 19:01 33.41268 -113.02166 44039 ft 341 kts 284°
2026-04-21 19:02 33.42801 -113.07539 44040 ft 341 kts 285°
2026-04-21 19:02 33.44332 -113.12917 44041 ft 341 kts 284°
2026-04-21 19:03 33.45860 -113.18297 44035 ft 341 kts 284°
2026-04-21 19:03 33.47374 -113.23640 44036 ft 341 kts 284°
2026-04-21 19:04 33.48895 -113.29015 44033 ft 341 kts 284°
2026-04-21 19:04 33.50414 -113.34389 44035 ft 340 kts 284°
2026-04-21 19:05 33.51931 -113.39763 44037 ft 340 kts 284°
2026-04-21 19:05 33.53445 -113.45144 44023 ft 341 kts 284°
2026-04-21 19:06 33.54955 -113.50521 44029 ft 340 kts 284°
2026-04-21 19:06 33.56464 -113.55905 44029 ft 341 kts 284°
2026-04-21 19:07 33.57971 -113.61291 44023 ft 341 kts 284°
2026-04-21 19:07 33.59468 -113.66647 44024 ft 341 kts 284°
2026-04-21 19:08 33.60973 -113.72043 44028 ft 341 kts 284°
2026-04-21 19:08 33.62477 -113.77446 44016 ft 341 kts 284°
2026-04-21 19:09 33.63979 -113.82859 43855 ft 346 kts 284°
2026-04-21 19:09 33.64748 -113.85642 43413 ft 357 kts 284°
2026-04-21 19:09 33.65364 -113.88557 42925 ft 365 kts 278°
2026-04-21 19:09 33.65902 -113.91546 42436 ft 364 kts 280°
2026-04-21 19:10 33.66462 -113.94480 41956 ft 357 kts 280°
2026-04-21 19:10 33.66997 -113.97365 41476 ft 350 kts 280°
2026-04-21 19:10 33.67508 -114.00195 41012 ft 344 kts 280°
2026-04-21 19:10 33.68014 -114.02976 40560 ft 337 kts 280°
2026-04-21 19:11 33.68509 -114.05669 40118 ft 332 kts 280°
2026-04-21 19:11 33.69000 -114.08360 39676 ft 328 kts 281°
2026-04-21 19:11 33.69483 -114.11013 39245 ft 323 kts 281°
2026-04-21 19:11 33.69960 -114.13627 38820 ft 319 kts 281°
2026-04-21 19:12 33.70278 -114.15378 38535 ft 316 kts 281°
2026-04-21 19:12 33.70893 -114.18771 37984 ft 313 kts 281°
2026-04-21 19:12 33.71357 -114.21329 37568 ft 315 kts 281°
2026-04-21 19:12 33.71826 -114.23914 37147 ft 318 kts 281°
2026-04-21 19:13 33.72296 -114.26512 36724 ft 319 kts 281°
2026-04-21 19:13 33.72770 -114.29126 36299 ft 321 kts 281°
2026-04-21 19:13 33.73240 -114.31747 35863 ft 321 kts 281°
2026-04-21 19:13 33.73716 -114.34378 35442 ft 326 kts 280°
2026-04-21 19:14 33.74198 -114.37077 34997 ft 334 kts 281°
2026-04-21 19:14 33.74694 -114.39826 34540 ft 339 kts 281°
2026-04-21 19:14 33.75196 -114.42617 34082 ft 344 kts 281°
2026-04-21 19:14 33.75702 -114.45441 33622 ft 347 kts 280°
2026-04-21 19:15 33.76039 -114.47322 33316 ft 348 kts 280°
2026-04-21 19:15 33.76551 -114.50177 32852 ft 350 kts 280°
2026-04-21 19:15 33.77061 -114.53047 32384 ft 354 kts 280°
2026-04-21 19:15 33.77789 -114.55917 31906 ft 365 kts 288°
2026-04-21 19:16 33.78739 -114.58780 31423 ft 372 kts 288°
2026-04-21 19:16 33.79676 -114.61712 30917 ft 378 kts 287°
2026-04-21 19:16 33.80634 -114.64684 30412 ft 384 kts 287°
2026-04-21 19:16 33.81611 -114.67689 29896 ft 388 kts 287°
2026-04-21 19:17 33.83568 -114.73711 28871 ft 383 kts 287°
2026-04-21 19:17 33.84521 -114.76685 28365 ft 379 kts 287°
2026-04-21 19:17 33.85474 -114.79629 27863 ft 378 kts 287°
2026-04-21 19:18 33.86422 -114.82586 27360 ft 379 kts 287°
2026-04-21 19:18 33.87379 -114.85543 26854 ft 379 kts 287°
2026-04-21 19:18 33.88328 -114.88503 26353 ft 381 kts 287°
2026-04-21 19:18 33.89297 -114.91503 25847 ft 385 kts 287°
2026-04-21 19:19 33.90249 -114.94487 25336 ft 389 kts 287°
2026-04-21 19:19 33.91221 -114.97525 24825 ft 390 kts 287°
2026-04-21 19:19 33.92207 -115.00577 24302 ft 391 kts 287°
2026-04-21 19:19 33.93186 -115.03644 23779 ft 394 kts 287°
2026-04-21 19:20 33.94172 -115.06725 23256 ft 393 kts 286°
2026-04-21 19:20 33.94886 -115.09868 22730 ft 386 kts 276°
2026-04-21 19:20 33.95220 -115.13055 22225 ft 381 kts 269°
2026-04-21 19:20 33.95157 -115.16226 21727 ft 377 kts 262°
2026-04-21 19:21 33.94731 -115.19319 21229 ft 373 kts 255°
2026-04-21 19:21 33.94234 -115.22382 20735 ft 372 kts 256°
2026-04-21 19:21 33.93754 -115.25445 20240 ft 371 kts 256°
2026-04-21 19:21 33.93257 -115.28488 19748 ft 370 kts 255°
2026-04-21 19:22 33.92758 -115.31520 19266 ft 369 kts 255°
2026-04-21 19:22 33.92264 -115.34539 18781 ft 367 kts 255°
2026-04-21 19:22 33.91776 -115.37553 18283 ft 366 kts 255°
2026-04-21 19:22 33.91288 -115.40559 17804 ft 365 kts 255°
2026-04-21 19:23 33.90791 -115.43549 17316 ft 364 kts 255°
2026-04-21 19:23 33.90308 -115.46529 16841 ft 362 kts 255°
2026-04-21 19:23 33.89817 -115.49500 16359 ft 361 kts 255°
2026-04-21 19:23 33.89334 -115.52456 15884 ft 360 kts 255°
2026-04-21 19:24 33.88846 -115.55409 15400 ft 359 kts 255°
2026-04-21 19:24 33.88362 -115.58343 14934 ft 356 kts 255°
2026-04-21 19:24 33.87917 -115.61261 14467 ft 356 kts 259°
2026-04-21 19:24 33.87855 -115.64261 13997 ft 359 kts 266°
2026-04-21 19:25 33.87848 -115.67220 13527 ft 358 kts 265°
2026-04-21 19:25 33.87837 -115.70218 13050 ft 359 kts 266°
2026-04-21 19:25 33.87848 -115.73207 12583 ft 349 kts 266°
2026-04-21 19:25 33.87860 -115.76021 12137 ft 325 kts 265°
2026-04-21 19:26 33.87855 -115.78653 11717 ft 307 kts 264°
2026-04-21 19:26 33.87848 -115.81166 11324 ft 294 kts 265°
2026-04-21 19:26 33.87845 -115.83579 10939 ft 284 kts 265°
2026-04-21 19:26 33.87841 -115.85951 10567 ft 282 kts 265°
2026-04-21 19:27 33.87839 -115.88321 10194 ft 283 kts 266°
2026-04-21 19:27 33.87838 -115.90689 9820 ft 282 kts 267°
2026-04-21 19:27 33.87829 -115.93039 9445 ft 280 kts 266°
2026-04-21 19:27 33.87631 -115.95340 9069 ft 276 kts 253°
2026-04-21 19:28 33.87003 -115.97469 8942 ft 266 kts 245°
2026-04-21 19:28 33.86038 -115.99397 8790 ft 272 kts 235°
2026-04-21 19:28 33.85063 -116.01321 8623 ft 266 kts 239°
2026-04-21 19:28 33.84142 -116.03207 8453 ft 257 kts 237°
2026-04-21 19:29 33.83194 -116.05013 8281 ft 252 kts 237°
2026-04-21 19:29 33.82284 -116.06783 8115 ft 247 kts 237°
2026-04-21 19:29 33.81388 -116.08545 8023 ft 245 kts 237°
2026-04-21 19:29 33.80473 -116.10301 7981 ft 252 kts 237°
2026-04-21 19:30 33.79552 -116.12114 7722 ft 256 kts 238°
2026-04-21 19:30 33.78615 -116.13937 7400 ft 256 kts 237°
2026-04-21 19:30 33.77685 -116.15752 7065 ft 253 kts 237°
2026-04-21 19:30 33.76767 -116.17531 6731 ft 248 kts 237°
2026-04-21 19:31 33.75871 -116.19281 6410 ft 243 kts 237°
2026-04-21 19:31 33.74983 -116.20998 6093 ft 240 kts 237°
2026-04-21 19:31 33.74107 -116.22698 5774 ft 238 kts 237°
2026-04-21 19:31 33.73245 -116.24378 5463 ft 235 kts 238°
2026-04-21 19:32 33.72385 -116.26042 5148 ft 234 kts 237°
2026-04-21 19:32 33.71671 -116.27789 4844 ft 234 kts 248°
2026-04-21 19:32 33.71227 -116.29641 4538 ft 235 kts 257°
2026-04-21 19:32 33.71063 -116.31619 4218 ft 235 kts 267°
2026-04-21 19:33 33.71113 -116.32915 4009 ft 235 kts 274°
2026-04-21 19:33 33.71606 -116.35446 3607 ft 236 kts 287°
2026-04-21 19:33 33.72248 -116.37253 3297 ft 233 kts 292°
2026-04-21 19:33 33.72885 -116.38973 2997 ft 233 kts 291°
2026-04-21 19:34 33.73578 -116.40818 2679 ft 241 kts 291°
2026-04-21 19:34 33.74323 -116.42574 2359 ft 231 kts 307°
2026-04-21 19:34 33.75528 -116.43788 2064 ft 222 kts 322°
2026-04-21 19:34 33.76700 -116.44847 1777 ft 192 kts 320°
2026-04-21 19:35 33.77688 -116.45785 1528 ft 167 kts 319°
2026-04-21 19:35 33.79097 -116.47144 1137 ft 113 kts 317°
2026-04-21 19:35 33.79675 -116.47746 1009 ft 109 kts 316°
2026-04-21 19:36 33.80267 -116.48340 892 ft 111 kts 318°
2026-04-21 19:36 33.80883 -116.48909 787 ft 112 kts 320°
2026-04-21 19:36 33.81503 -116.49465 585 ft 109 kts 320°
2026-04-21 19:36 33.82106 -116.49999 460 ft 111 kts 323°
2026-04-21 19:37 33.82691 -116.50518 419 ft 91 kts 323°
2026-04-21 19:37 33.83104 -116.50887 433 ft 48 kts 323°
2026-04-21 19:37 33.83160 -116.50937 439 ft 47 kts 323°
2026-04-21 19:37 33.83333 -116.51100 440 ft 13 kts 301°
2026-04-21 19:38 33.83298 -116.51189 447 ft 14 kts 202°
2026-04-21 19:38 33.83191 -116.51183 444 ft 17 kts 141°
2026-04-21 19:38 33.83123 -116.51121 441 ft 20 kts 144°
2026-04-21 19:38 33.82950 -116.50967 430 ft 25 kts 144°
2026-04-21 19:39 33.82811 -116.50832 430 ft 28 kts 144°
2026-04-21 19:39 33.82667 -116.50704 428 ft 18 kts 143°
2026-04-21 19:39 33.82580 -116.50708 426 ft 14 kts 204°
2026-04-21 19:39 33.82536 -116.50791 422 ft 13 kts 270°
2026-04-21 19:40 33.82535 -116.50913 422 ft 16 kts 269°
2026-04-21 19:40 33.82557 -116.50998 421 ft 2 kts 324°
2026-04-21 19:40 33.82574 -116.50991 427 ft 4 kts 100°
2026-04-21 19:40 33.82573 -116.50979 427 ft 0 kts 90°